#datetime,meter,power
2022-01-16T00:00:00,08,1.67
2022-01-16T00:01:00,08,1.60
2022-01-16T00:02:00,08,1.50
2022-01-16T00:03:00,08,1.49
2022-01-16T00:04:00,08,1.49
2022-01-16T00:05:00,08,2.40
2022-01-16T00:06:00,08,2.38
2022-01-16T00:07:00,08,1.45
2022-01-16T00:08:00,08,1.43
2022-01-16T00:09:00,08,1.42
2022-01-16T00:10:00,08,1.20
2022-01-16T00:11:00,08,0.52
2022-01-16T00:12:00,08,0.53
2022-01-16T00:13:00,08,0.51
2022-01-16T00:14:00,08,0.51
2022-01-16T00:15:00,08,0.50
2022-01-16T00:16:00,08,0.50
2022-01-16T00:17:00,08,1.62
2022-01-16T00:18:00,08,1.72
2022-01-16T00:19:00,08,1.75
2022-01-16T00:20:00,08,1.92
2022-01-16T00:21:00,08,1.92
2022-01-16T00:22:00,08,1.71
2022-01-16T00:23:00,08,1.67
2022-01-16T00:24:00,08,1.67
2022-01-16T00:25:00,08,1.68
2022-01-16T00:26:00,08,0.41
2022-01-16T00:27:00,08,0.42
2022-01-16T00:28:00,08,0.42
2022-01-16T00:29:00,08,0.42
2022-01-16T00:30:00,08,0.42
2022-01-16T00:31:00,08,0.42
2022-01-16T00:32:00,08,0.42
2022-01-16T00:33:00,08,0.43
2022-01-16T00:34:00,08,0.46
2022-01-16T00:35:00,08,0.56
2022-01-16T00:36:00,08,0.61
2022-01-16T00:37:00,08,1.73
2022-01-16T00:38:00,08,1.75
2022-01-16T00:39:00,08,1.67
2022-01-16T00:40:00,08,1.68
2022-01-16T00:41:00,08,1.68
2022-01-16T00:42:00,08,1.68
2022-01-16T00:43:00,08,1.67
2022-01-16T00:44:00,08,1.66
2022-01-16T00:45:00,08,1.65
2022-01-16T00:46:00,08,1.45
2022-01-16T00:47:00,08,0.55
2022-01-16T00:48:00,08,0.55
2022-01-16T00:49:00,08,0.60
2022-01-16T00:50:00,08,0.58
2022-01-16T00:51:00,08,0.58
2022-01-16T00:52:00,08,0.58
2022-01-16T00:53:00,08,0.58
2022-01-16T00:54:00,08,0.58
2022-01-16T00:55:00,08,0.50
2022-01-16T00:56:00,08,1.62
2022-01-16T00:57:00,08,1.62
2022-01-16T00:58:00,08,1.55
2022-01-16T00:59:00,08,2.48
2022-01-16T01:00:00,08,2.41
2022-01-16T01:01:00,08,2.42
2022-01-16T01:02:00,08,2.56
2022-01-16T01:03:00,08,2.56
2022-01-16T01:04:00,08,2.55
2022-01-16T01:05:00,08,2.35
2022-01-16T01:06:00,08,1.44
2022-01-16T01:07:00,08,0.55
2022-01-16T01:08:00,08,0.52
2022-01-16T01:09:00,08,0.52
2022-01-16T01:10:00,08,0.50
2022-01-16T01:11:00,08,0.48
2022-01-16T01:12:00,08,0.48
2022-01-16T01:13:00,08,0.48
2022-01-16T01:14:00,08,0.54
2022-01-16T01:15:00,08,0.56
2022-01-16T01:16:00,08,1.62
2022-01-16T01:17:00,08,1.64
2022-01-16T01:18:00,08,1.61
2022-01-16T01:19:00,08,1.62
2022-01-16T01:20:00,08,1.62
2022-01-16T01:21:00,08,1.62
2022-01-16T01:22:00,08,1.49
2022-01-16T01:23:00,08,1.49
2022-01-16T01:24:00,08,1.49
2022-01-16T01:25:00,08,1.48
2022-01-16T01:26:00,08,0.36
2022-01-16T01:27:00,08,0.36
2022-01-16T01:28:00,08,0.48
2022-01-16T01:29:00,08,0.46
2022-01-16T01:30:00,08,0.47
2022-01-16T01:31:00,08,0.45
2022-01-16T01:32:00,08,0.45
2022-01-16T01:33:00,08,0.51
2022-01-16T01:34:00,08,0.51
2022-01-16T01:35:00,08,0.45
2022-01-16T01:36:00,08,1.59
2022-01-16T01:37:00,08,1.61
2022-01-16T01:38:00,08,1.56
2022-01-16T01:39:00,08,1.58
2022-01-16T01:40:00,08,2.50
2022-01-16T01:41:00,08,2.65
2022-01-16T01:42:00,08,2.64
2022-01-16T01:43:00,08,2.66
2022-01-16T01:44:00,08,2.65
2022-01-16T01:45:00,08,1.52
2022-01-16T01:46:00,08,1.51
2022-01-16T01:47:00,08,0.62
2022-01-16T01:48:00,08,0.67
2022-01-16T01:49:00,08,0.67
2022-01-16T01:50:00,08,0.65
2022-01-16T01:51:00,08,0.65
2022-01-16T01:52:00,08,0.69
2022-01-16T01:53:00,08,0.69
2022-01-16T01:54:00,08,0.64
2022-01-16T01:55:00,08,0.63
2022-01-16T01:56:00,08,1.77
2022-01-16T01:57:00,08,1.77
2022-01-16T01:58:00,08,1.77
2022-01-16T01:59:00,08,1.76
2022-01-16T02:00:00,08,1.71
2022-01-16T02:01:00,08,1.56
2022-01-16T02:02:00,08,1.56
2022-01-16T02:03:00,08,1.56
2022-01-16T02:04:00,08,1.58
2022-01-16T02:05:00,08,1.58
2022-01-16T02:06:00,08,0.45
2022-01-16T02:07:00,08,0.45
2022-01-16T02:08:00,08,0.45
2022-01-16T02:09:00,08,0.43
2022-01-16T02:10:00,08,0.50
2022-01-16T02:11:00,08,0.50
2022-01-16T02:12:00,08,0.49
2022-01-16T02:13:00,08,0.64
2022-01-16T02:14:00,08,0.64
2022-01-16T02:15:00,08,0.43
2022-01-16T02:16:00,08,1.56
2022-01-16T02:17:00,08,1.59
2022-01-16T02:18:00,08,1.57
2022-01-16T02:19:00,08,2.64
2022-01-16T02:20:00,08,2.63
2022-01-16T02:21:00,08,2.62
2022-01-16T02:22:00,08,2.62
2022-01-16T02:23:00,08,2.62
2022-01-16T02:24:00,08,2.62
2022-01-16T02:25:00,08,1.51
2022-01-16T02:26:00,08,1.51
2022-01-16T02:27:00,08,0.51
2022-01-16T02:28:00,08,0.49
2022-01-16T02:29:00,08,0.55
2022-01-16T02:30:00,08,0.53
2022-01-16T02:31:00,08,0.54
2022-01-16T02:32:00,08,0.48
2022-01-16T02:33:00,08,0.47
2022-01-16T02:34:00,08,0.47
2022-01-16T02:35:00,08,0.47
2022-01-16T02:36:00,08,1.62
2022-01-16T02:37:00,08,1.65
2022-01-16T02:38:00,08,1.63
2022-01-16T02:39:00,08,1.49
2022-01-16T02:40:00,08,1.48
2022-01-16T02:41:00,08,1.46
2022-01-16T02:42:00,08,1.46
2022-01-16T02:43:00,08,1.47
2022-01-16T02:44:00,08,1.53
2022-01-16T02:45:00,08,0.42
2022-01-16T02:46:00,08,0.42
2022-01-16T02:47:00,08,0.40
2022-01-16T02:48:00,08,0.43
2022-01-16T02:49:00,08,0.43
2022-01-16T02:50:00,08,0.38
2022-01-16T02:51:00,08,0.38
2022-01-16T02:52:00,08,0.38
2022-01-16T02:53:00,08,0.59
2022-01-16T02:54:00,08,0.58
2022-01-16T02:55:00,08,1.49
2022-01-16T02:56:00,08,1.45
2022-01-16T02:57:00,08,1.46
2022-01-16T02:58:00,08,1.46
2022-01-16T02:59:00,08,2.38
2022-01-16T03:00:00,08,2.54
2022-01-16T03:01:00,08,2.52
2022-01-16T03:02:00,08,2.52
2022-01-16T03:03:00,08,2.55
2022-01-16T03:04:00,08,2.52
2022-01-16T03:05:00,08,1.42
2022-01-16T03:06:00,08,1.42
2022-01-16T03:07:00,08,0.58
2022-01-16T03:08:00,08,0.55
2022-01-16T03:09:00,08,0.49
2022-01-16T03:10:00,08,0.47
2022-01-16T03:11:00,08,0.47
2022-01-16T03:12:00,08,0.48
2022-01-16T03:13:00,08,0.60
2022-01-16T03:14:00,08,0.58
2022-01-16T03:15:00,08,0.58
2022-01-16T03:16:00,08,1.72
2022-01-16T03:17:00,08,1.75
2022-01-16T03:18:00,08,1.72
2022-01-16T03:19:00,08,1.73
2022-01-16T03:20:00,08,1.58
2022-01-16T03:21:00,08,1.57
2022-01-16T03:22:00,08,1.57
2022-01-16T03:23:00,08,1.56
2022-01-16T03:24:00,08,1.55
2022-01-16T03:25:00,08,1.42
2022-01-16T03:26:00,08,0.51
2022-01-16T03:27:00,08,0.51
2022-01-16T03:28:00,08,0.42
2022-01-16T03:29:00,08,0.42
2022-01-16T03:30:00,08,0.42
2022-01-16T03:31:00,08,0.42
2022-01-16T03:32:00,08,0.43
2022-01-16T03:33:00,08,0.43
2022-01-16T03:34:00,08,0.63
2022-01-16T03:35:00,08,0.42
2022-01-16T03:36:00,08,1.55
2022-01-16T03:37:00,08,1.58
2022-01-16T03:38:00,08,1.57
2022-01-16T03:39:00,08,2.49
2022-01-16T03:40:00,08,2.65
2022-01-16T03:41:00,08,2.61
